Location: Navajo
(48.7922°N, 105.0603°W)
Time: 13:29:44
(UTC+00:00)

DUCHIFAT 1 - Visible Passes

Search period start: 26 June 2022 00:00
Search period end: 06 July 2022 00:00
Orbit: 580 x 598 km, 98.0° (Epoch: 26 June)

Date Brightness Start Highest point End Pass type
(mag) Time Alt. Az. Time Alt. Az. Time Alt. Az.
26 Jun ? 08:17:04 10° ENE 08:18:24 11° E 08:19:43 10° ESE visible
26 Jun ? 09:50:14 10° NNE 09:54:25 82° WNW 09:58:37 10° SSW visible
27 Jun ? 08:24:01 10° ENE 08:26:07 13° E 08:28:14 10° ESE visible
27 Jun ? 09:57:53 10° N 10:02:03 69° WNW 10:06:13 10° SSW visible
28 Jun ? 08:31:13 10° NE 08:33:51 16° E 08:36:27 10° SE visible
28 Jun ? 10:05:33 10° N 10:09:40 57° WNW 10:13:47 10° SSW visible
29 Jun ? 08:38:32 10° NE 08:41:32 19° E 08:44:32 10° SE visible
29 Jun ? 10:13:13 10° N 10:17:16 48° WNW 10:21:18 10° SW visible
30 Jun ? 08:45:55 10° NE 08:49:14 22° E 08:52:31 10° SE visible
01 Jul ? 08:53:21 10° NE 08:56:54 26° E 09:00:26 10° SSE visible
02 Jul ? 09:00:49 10° NNE 09:04:33 31° E 09:08:17 10° SSE visible
03 Jul ? 09:08:18 10° NNE 09:12:13 36° E 09:16:06 10° SSE visible
04 Jul ? 09:15:49 10° NNE 09:19:50 43° E 09:23:51 10° S visible
05 Jul ? 09:23:20 10° NNE 09:27:28 51° E 09:31:34 10° S visible
